Location: Austin
(30.3000°N, 97.7500°W)
Time: 20:59:03
(UTC-06:00)

ATLAS 2AS CENTAUR R/B - Pass Details

Date: 31 October 2024
Orbit: 1026 x 1185 km, 63.7° (Epoch: 05 November)

Event Time Altitude Azimuth Distance (km) Brightness Sun altitude
Rises 05:05:40 0° 182° (S) 4,052 5.7 -34.8°
Reaches altitude 10° 05:08:41 10° 173° (S) 3,083 5.1 -34.2°
Maximum altitude 05:15:12 35° 111° (ESE) 1,780 4.2 -32.8°
Drops below altitude 10° 05:21:35 10° 49° (NE) 3,016 5.6 -31.4°
Sets 05:24:28 0° 40° (NE) 3,954 6.2 -30.8°
